Location: ?????
(31.8092°N, 35.2590°E)
Time: 02:22:33
(UTC+00:00)

SPOT 5 - Pass Details

Date: 20 June 2021
Orbit: 622 x 815 km, 98.2° (Epoch: 04 August)

Event Time Altitude Azimuth Distance (km) Brightness Sun altitude
Exits shadow 19:09:02 52° 88° (E) 951 3.2 -23.9°
Maximum altitude 19:09:20 53° 74° (ENE) 941 3.2 -24.0°
Drops below altitude 10° 19:14:09 10° 359° (N) 2,249 6.1 -24.6°
Sets 19:16:25 0° 355° (N) 3,144 7.1 -24.9°
